GFSFLT1_sfc_thetae_273.txt.gz
Theta_e
273 273 275 276 277 278 278 278 279 279 279 279 279 280 280 280 279 280 280 281 281 281 280 280 280 279 279 278 277 276 276 276
272 272 274 275 276 277 277 277 278 278 278 278 278 277 277 277 278 278 278 279 278 277 277 278 278 277 277 276 276 276 275 275
270 270 271 272 274 276 277 277 277 278 278 277 277 277 276 275 276 277 276 277 276 276 276 276 276 276 276 275 275 275 274 274
266 268 267 271 273 275 276 276 277 277 277 277 276 276 275 275 275 276 275 275 275 276 275 275 275 275 275 275 275 275 274 273
265 265 268 270 273 274 275 276 277 277 276 276 276 276 276 276 276 276 275 274 274 274 273 273 274 274 274 274 273 273 274 274
264 266 268 271 273 274 274 275 276 276 276 275 276 276 276 276 276 276 276 276 276 275 275 274 273 273 272 272 272 272 272 273
267 267 269 271 272 272 273 274 275 274 274 275 276 276 276 276 275 275 275 275 275 275 275 275 276 277 276 273 272 272 272 271
264 268 270 272 274 273 273 275 274 274 274 275 275 274 274 275 275 275 275 275 275 274 274 274 275 277 275 274 271 270 270 270
266 269 270 272 272 273 274 273 273 273 273 274 274 273 273 273 273 273 274 274 274 274 275 275 276 276 275 272 269 268 268 269
263 266 270 270 272 272 272 272 272 271 272 272 273 272 272 271 272 272 273 273 273 273 274 274 274 276 275 272 270 268 268 268
266 268 270 270 272 271 271 271 270 271 271 272 272 272 271 271 271 271 272 272 272 272 272 272 275 277 275 272 270 268 268 268
264 264 265 267 270 269 269 269 270 271 271 271 270 270 270 270 270 270 270 270 269 269 270 270 271 275 277 275 271 269 268 268
265 266 267 269 270 268 268 269 269 269 269 268 268 270 269 267 268 267 267 267 267 267 268 269 269 274 276 276 275 274 269 268
266 266 266 267 268 267 266 267 266 266 264 265 267 269 268 267 266 267 266 266 266 267 266 267 269 269 273 274 275 274 271 270
266 265 265 265 268 267 266 266 263 263 263 264 265 266 266 268 267 266 265 265 266 266 266 266 267 269 271 271 271 272 271 270
266 265 265 264 264 263 264 263 264 264 264 265 265 264 265 266 266 267 266 267 264 264 265 265 266 269 275 274 271 270 270 261
265 264 264 263 263 261 262 263 263 264 264 264 264 264 265 265 266 272 273 273 274 273 268 268 271 273 275 275 275 273 270 260
265 265 263 262 262 260 259 260 260 263 263 263 263 263 263 262 263 264 267 273 275 274 274 274 274 273 274 274 274 270 265 259
263 263 262 260 261 260 259 259 260 260 261 262 263 263 262 262 262 261 261 262 263 267 272 273 273 274 273 274 267 260 258 255
261 261 260 260 262 259 259 260 260 260 260 260 261 261 261 260 259 258 258 258 259 258 263 263 269 272 272 273 261 259 258 257

GFSFLT1_sfc_thetae_276.txt.gz
Theta_e
275 276 277 278 279 279 279 279 279 279 280 279 279 280 280 280 280 280 281 281 281 280 280 280 280 279 280 280 278 277 277 277
274 275 275 277 277 278 278 278 278 278 278 278 278 278 278 278 278 278 279 280 279 279 279 278 278 278 278 277 277 276 276 276
273 273 274 275 276 277 277 277 278 278 278 277 277 277 276 276 277 277 277 278 278 278 277 277 277 277 276 275 275 275 274 274
271 271 273 274 275 276 276 277 277 278 277 277 277 276 276 276 276 276 276 276 276 277 276 276 275 276 276 275 275 274 274 274
270 271 273 274 275 275 275 276 277 277 276 276 276 277 277 277 276 276 276 275 275 275 275 275 275 275 275 276 275 275 276 276
270 271 273 274 274 275 275 276 277 276 276 275 276 277 277 277 277 277 277 277 277 276 275 275 275 275 274 275 274 274 274 275
270 271 272 274 274 275 275 276 277 276 276 277 276 277 277 277 276 276 276 276 277 276 276 276 277 278 277 276 275 275 274 273
270 271 273 273 275 274 275 276 276 275 275 276 276 276 276 276 276 276 276 276 276 276 276 276 277 277 276 275 274 273 273 273
270 272 274 275 275 276 276 276 276 275 275 275 275 274 275 275 275 276 276 276 276 276 276 276 276 276 275 273 272 271 272 272
268 269 273 273 274 275 274 275 274 274 274 274 275 274 274 274 274 275 275 275 275 276 276 275 275 276 275 273 272 271 270 271
269 271 272 273 275 274 273 273 273 273 273 274 274 274 273 274 274 275 275 275 275 275 275 277 276 277 275 274 273 271 271 271
269 270 271 271 273 272 272 272 273 273 273 273 273 273 273 273 274 274 273 273 273 273 274 274 275 277 277 276 273 272 272 271
270 271 271 272 273 272 272 272 273 273 272 272 272 273 273 272 272 272 272 272 271 272 272 273 273 276 276 276 276 274 272 271
271 271 271 272 272 271 272 271 271 270 269 270 271 271 271 272 271 271 272 272 272 272 273 273 273 274 274 275 275 275 274 273
270 269 270 270 271 272 271 270 268 269 269 269 270 270 271 272 272 273 273 272 272 272 272 272 273 274 275 275 276 275 274 273
270 269 270 270 270 270 270 269 269 269 269 271 271 271 271 272 273 272 271 272 272 272 272 272 272 273 275 276 276 276 274 269
269 270 270 269 269 269 268 268 269 270 270 271 272 271 272 272 272 273 274 273 274 274 272 273 273 275 275 276 276 276 275 270
269 269 270 269 269 268 267 267 267 272 272 271 270 271 271 271 272 272 273 275 277 277 277 277 276 276 276 275 275 276 272 267
270 269 268 267 267 268 267 267 267 269 268 272 272 272 272 271 271 271 271 271 272 274 275 276 276 276 276 276 275 271 270 267
267 267 266 266 267 267 266 266 267 268 270 270 271 271 270 271 270 270 269 269 269 270 269 270 273 274 274 275 274 271 270 267

GFSFLT1_sfc_thetae_279.txt.gz
Theta_e
276 276 277 277 278 280 279 279 279 280 280 279 279 280 280 281 281 281 281 281 281 280 280 279 280 280 280 279 278 278 279 279
275 275 276 277 278 279 278 278 278 278 279 278 278 278 278 278 278 279 280 280 279 279 279 279 279 279 279 277 278 278 277 278
274 274 275 275 277 277 277 277 278 278 278 277 277 277 276 276 277 278 277 278 278 278 278 278 278 278 277 276 276 276 275 276
273 273 274 275 276 276 276 277 277 278 277 277 277 276 276 276 276 276 276 276 277 277 276 276 276 276 277 276 275 275 275 275
272 273 274 275 275 275 276 277 277 277 276 276 276 277 277 277 277 276 276 276 275 276 276 276 276 276 276 276 276 276 276 276
271 273 274 275 275 276 276 277 277 276 276 276 277 277 277 277 277 277 277 277 277 277 277 277 277 276 276 276 275 275 274 275
271 273 273 275 275 276 276 276 277 276 276 277 277 277 277 277 277 277 277 277 278 277 277 277 278 280 279 277 276 276 275 274
272 272 274 276 277 276 276 277 277 276 277 277 277 277 277 277 277 276 276 277 276 276 276 276 277 278 278 277 275 275 274 274
273 274 275 276 277 277 277 277 276 276 276 276 276 276 276 276 276 276 276 276 276 276 276 276 276 277 276 275 273 273 273 274
270 271 275 274 276 276 276 276 275 275 275 275 276 275 275 275 275 276 276 276 276 277 276 275 275 277 276 274 273 272 271 272
271 273 274 274 276 275 275 275 274 274 274 275 275 275 275 275 275 276 276 275 276 276 277 277 276 277 277 275 274 272 272 272
271 273 273 273 275 274 274 273 274 275 275 275 275 274 275 275 275 275 275 275 274 274 274 275 277 277 278 277 274 274 273 272
272 273 274 274 275 274 274 274 274 274 274 273 273 274 274 273 273 274 274 273 273 273 274 274 274 276 277 277 276 275 274 273
274 273 274 274 274 273 274 273 272 272 270 271 272 273 274 274 273 273 274 274 273 274 274 273 274 275 275 275 276 276 275 275
273 272 272 273 273 274 274 272 269 270 270 271 271 272 272 274 274 275 274 274 274 274 274 274 274 274 276 276 276 276 275 275
272 272 272 272 272 272 272 270 270 271 271 272 273 271 273 273 274 274 275 275 275 275 275 274 273 274 276 276 276 276 276 270
272 272 272 272 271 271 270 269 270 271 272 273 273 273 273 274 273 275 275 275 275 275 274 274 275 275 275 276 277 277 277 270
271 271 272 271 270 270 269 268 268 272 273 273 272 274 273 273 273 273 275 277 277 278 277 278 276 277 277 278 277 277 276 270
272 270 270 270 269 270 270 269 268 270 270 274 274 274 274 274 274 273 273 273 274 277 277 278 278 278 278 278 277 274 274 271
269 268 268 268 269 269 269 268 268 270 271 272 274 274 273 274 273 273 272 271 272 273 274 272 275 276 277 277 273 272 272 272

GFSFLT1_sfc_thetae_285.txt.gz
Theta_e
271 273 274 274 275 277 277 277 278 278 279 279 279 279 279 280 279 279 280 281 280 280 280 280 281 281 281 280 281 281 281 282
270 271 270 270 271 273 274 274 276 278 277 277 277 277 277 277 278 278 278 278 278 278 279 279 279 280 280 280 281 280 280 281
270 267 266 267 268 270 274 274 274 276 277 277 277 277 276 276 277 278 277 278 278 278 277 277 278 278 278 278 278 278 278 278
267 266 264 267 269 270 272 274 275 276 277 277 276 276 276 276 277 277 277 277 278 278 278 278 278 277 277 278 277 277 276 276
263 265 268 269 272 271 271 274 274 275 276 276 276 277 277 277 277 277 278 277 277 277 277 277 277 277 277 277 276 276 277 277
261 264 269 270 271 269 271 273 274 275 276 276 276 277 277 277 277 277 278 278 278 278 278 278 277 277 276 275 275 274 274 275
261 263 268 269 271 270 272 273 274 274 274 275 276 276 276 276 276 276 276 276 277 278 278 278 279 280 279 277 275 275 274 273
262 266 267 272 275 273 272 273 274 274 274 275 276 275 276 276 276 275 275 276 275 275 277 277 278 280 279 278 275 274 275 275
264 268 268 272 272 276 276 276 275 274 274 275 275 275 275 275 275 275 275 274 274 274 275 275 277 279 278 277 274 274 274 274
263 262 268 268 271 273 274 275 274 274 274 275 275 274 275 274 274 274 275 274 275 275 275 276 276 278 277 275 273 273 273 274
266 267 268 267 271 273 272 272 272 273 274 274 274 274 272 273 273 274 274 275 275 275 275 275 276 279 278 275 274 272 271 272
265 266 267 267 270 270 269 269 271 272 273 273 273 272 272 272 272 272 272 272 271 272 272 273 275 277 278 277 275 273 272 272
268 269 269 271 273 271 270 272 271 271 270 269 267 272 271 267 268 268 268 268 267 267 269 270 272 276 278 278 276 276 272 271
269 270 270 271 271 270 270 270 268 266 264 264 267 270 270 267 268 267 266 266 267 269 267 267 271 271 277 277 277 277 273 272
269 269 269 269 272 271 270 269 265 264 265 265 265 266 266 271 270 267 265 265 268 268 268 267 268 269 270 271 270 276 274 274
269 269 269 269 269 267 269 267 266 265 266 266 267 266 267 269 268 270 270 270 266 267 266 264 265 269 274 272 269 268 272 263
269 269 268 268 268 266 266 267 266 267 267 267 267 266 266 266 266 275 277 277 279 279 273 271 275 277 278 279 279 279 279 261
269 269 267 267 267 267 265 265 265 267 267 266 267 266 266 265 266 267 269 278 279 280 280 280 278 278 279 279 279 279 279 273
266 266 266 267 267 267 266 266 266 265 265 267 267 267 265 266 267 266 263 265 266 273 279 280 280 280 280 280 279 275 276 275
266 266 265 266 268 266 267 266 266 265 266 267 266 265 266 266 265 264 264 266 268 262 270 273 279 280 281 281 277 275 274 274

GFSFLT1_sfc_thetae_291.txt.gz
Theta_e
271 271 272 272 272 273 273 270 270 273 274 277 274 276 275 276 279 280 280 281 281 281 281 281 282 282 283 283 284 285 284 285
269 270 268 268 267 268 268 267 270 271 273 274 274 274 274 277 278 278 278 278 278 279 279 279 280 281 282 282 283 283 283 283
267 265 264 265 265 266 265 266 270 271 273 274 274 271 270 274 277 278 278 279 279 279 279 279 279 280 280 279 280 280 280 280
262 262 263 264 264 264 265 268 270 269 270 272 273 273 271 274 278 278 278 278 278 278 278 278 278 278 279 279 278 278 278 278
261 262 262 264 264 264 265 266 267 268 269 270 272 273 275 276 277 278 278 278 277 277 277 277 278 278 278 278 278 278 278 278
259 260 261 264 264 264 264 265 264 267 270 271 272 273 274 275 276 277 278 279 279 278 278 278 278 277 276 277 277 276 277 279
258 259 263 263 264 265 265 266 267 269 269 269 272 274 274 275 276 276 277 277 278 278 278 278 280 281 280 278 276 276 276 275
262 262 264 266 272 267 267 271 273 273 274 274 272 273 274 275 276 275 275 276 276 277 278 278 279 281 280 278 277 276 275 275
263 268 267 270 270 274 274 273 273 273 274 275 275 275 274 274 273 274 275 275 274 274 276 278 279 280 279 278 275 275 274 274
264 263 266 267 268 271 270 271 272 270 272 273 275 275 275 274 274 274 274 274 275 276 275 275 277 280 279 276 274 274 273 274
266 265 267 267 269 272 271 271 270 271 272 272 272 272 272 274 275 275 275 275 275 275 275 275 275 278 278 275 275 273 273 273
265 266 267 267 268 270 269 268 270 271 272 272 272 271 272 271 271 271 271 271 269 270 271 272 274 276 278 277 274 273 272 272
268 268 269 270 271 271 270 271 270 269 269 268 267 270 270 265 267 267 267 266 266 266 268 269 271 276 278 278 276 275 271 271
270 270 270 270 270 269 270 269 267 266 264 263 265 269 269 265 266 266 264 265 266 267 266 267 269 270 277 279 279 278 272 271
269 269 270 269 271 271 269 268 265 265 265 264 264 266 265 269 269 267 265 265 267 266 267 266 266 268 268 270 268 273 274 275
271 271 271 269 269 268 268 266 266 265 266 266 266 265 266 268 267 269 268 268 265 265 265 262 265 268 273 272 269 267 271 263
271 271 271 269 269 267 267 266 266 267 266 267 267 265 266 265 266 273 276 277 278 279 274 268 274 278 278 279 280 280 279 265
272 272 272 269 269 267 266 266 266 267 268 266 266 265 265 263 264 266 268 276 278 280 280 281 281 281 281 281 281 281 280 275
272 271 271 268 269 266 266 266 267 267 266 266 266 266 264 264 265 263 262 265 263 271 277 279 280 281 282 282 282 277 277 275
270 271 270 268 269 265 266 267 267 267 267 266 267 265 265 263 262 263 262 263 265 264 269 269 276 278 279 281 277 275 274 274